Location: Battery Park City
(40.7115°N, 74.0163°W)
Time: 04:18:41
(UTC+00:00)

Cosmos 292 Rocket - Pass Details

Date: 08 December 2019
Orbit: 673 x 695 km, 74.0° (Epoch: 18 January)

Event Time Altitude Azimuth Distance (km) Brightness Sun altitude
Rises 22:58:02 0° 344° (NNW) 3,080 7.1 -16.4°
Reaches altitude 10° 23:00:24 10° 348° (NNW) 2,160 6.3 -16.9°
Maximum altitude 23:05:13 60° 68° (ENE) 795 3.7 -17.7°
Drops below altitude 10° 23:09:59 10° 149° (SSE) 2,141 6.1 -18.6°
Sets 23:12:19 0° 153° (SSE) 3,051 7.0 -19.0°
